Time,TemperatureF,DewpointF,PressureIn,WindDirection,WindDirectionDegrees,WindSpeedMPH,WindSpeedGustMPH,Humidity,HourlyPrecipIn,Conditions,Clouds,dailyrainin,SoftwareType,DateUTC
2013-01-11 00:05:00,46.0,37.0,29.91,WSW,240,1.0,-999.0,71,-99.99,,,0.00,weatherlink.com 1.10,2013-01-11 06:05:00,
2013-01-11 00:21:00,46.0,37.0,29.91,WSW,255,8.0,-999.0,71,-99.99,,,0.00,weatherlink.com 1.10,2013-01-11 06:21:00,
2013-01-11 00:35:00,46.0,37.0,29.90,West,265,4.0,-999.0,71,-99.99,,,0.00,weatherlink.com 1.10,2013-01-11 06:35:00,
2013-01-11 01:05:00,45.8,37.0,29.91,WSW,252,3.0,-999.0,70,-99.99,,,0.00,weatherlink.com 1.10,2013-01-11 07:05:00,
2013-01-11 01:20:00,45.7,36.0,29.91,WSW,242,5.0,-999.0,70,-99.99,,,0.00,weatherlink.com 1.10,2013-01-11 07:20:00,
2013-01-11 01:35:00,45.5,36.0,29.92,SW,236,5.0,-999.0,69,-99.99,,,0.00,weatherlink.com 1.10,2013-01-11 07:35:00,
2013-01-11 01:50:00,45.4,35.0,29.92,WSW,240,8.0,-999.0,68,-99.99,,,0.00,weatherlink.com 1.10,2013-01-11 07:50:00,
2013-01-11 02:05:00,45.8,36.0,29.93,WSW,258,5.0,-999.0,68,-99.99,,,0.00,weatherlink.com 1.10,2013-01-11 08:05:00,
2013-01-11 02:20:00,45.7,36.0,29.93,WSW,244,5.0,-999.0,68,-99.99,,,0.00,weatherlink.com 1.10,2013-01-11 08:20:00,
2013-01-11 02:35:00,45.5,35.0,29.94,WSW,246,10.0,-999.0,68,-99.99,,,0.00,weatherlink.com 1.10,2013-01-11 08:35:00,
2013-01-11 02:50:00,45.6,36.0,29.93,West,273,0.0,-999.0,69,-99.99,,,0.00,weatherlink.com 1.10,2013-01-11 08:50:00,
2013-01-11 03:05:00,45.6,36.0,29.93,WSW,255,5.0,-999.0,69,-99.99,,,0.00,weatherlink.com 1.10,2013-01-11 09:05:00,
2013-01-11 03:58:00,45.2,36.0,29.91,SW,221,2.0,-999.0,70,-99.99,,,0.00,weatherlink.com 1.10,2013-01-11 09:58:00,
2013-01-11 04:10:00,45.0,36.0,29.91,SW,228,5.0,-999.0,70,-99.99,,,0.00,weatherlink.com 1.10,2013-01-11 10:10:00,
2013-01-11 04:25:00,44.8,36.0,29.92,WSW,242,0.0,-999.0,70,-99.99,,,0.00,weatherlink.com 1.10,2013-01-11 10:25:00,
2013-01-11 04:40:00,44.5,35.0,29.91,SW,224,0.0,-999.0,69,-99.99,,,0.00,weatherlink.com 1.10,2013-01-11 10:40:00,
2013-01-11 04:55:00,44.6,35.0,29.90,WSW,241,0.0,-999.0,69,-99.99,,,0.00,weatherlink.com 1.10,2013-01-11 10:55:00,
2013-01-11 05:10:00,45.0,36.0,29.89,WSW,240,0.0,-999.0,70,-99.99,,,0.00,weatherlink.com 1.10,2013-01-11 11:10:00,
2013-01-11 05:25:00,44.5,35.0,29.88,SW,232,4.0,-999.0,70,-99.99,,,0.00,weatherlink.com 1.10,2013-01-11 11:25:00,
2013-01-11 05:40:00,44.6,35.0,29.90,West,269,3.0,-999.0,69,-99.99,,,0.00,weatherlink.com 1.10,2013-01-11 11:40:00,
2013-01-11 05:58:00,44.6,35.0,29.90,WSW,238,0.0,-999.0,70,-99.99,,,0.00,weatherlink.com 1.10,2013-01-11 11:58:00,
2013-01-11 06:10:00,44.9,36.0,29.91,SW,225,0.0,-999.0,70,-99.99,,,0.00,weatherlink.com 1.10,2013-01-11 12:10:00,
2013-01-11 06:25:00,45.4,37.0,29.90,WSW,249,0.0,-999.0,72,-99.99,,,0.00,weatherlink.com 1.10,2013-01-11 12:25:00,
2013-01-11 06:40:00,45.6,38.0,29.92,WSW,238,3.0,-999.0,74,-99.99,,,0.00,weatherlink.com 1.10,2013-01-11 12:40:00,
2013-01-11 06:55:00,45.4,37.0,29.91,WSW,248,8.0,-999.0,73,-99.99,,,0.00,weatherlink.com 1.10,2013-01-11 12:55:00,
2013-01-11 07:10:00,45.3,37.0,29.92,SW,236,0.0,-999.0,73,-99.99,,,0.00,weatherlink.com 1.10,2013-01-11 13:10:00,
2013-01-11 07:25:00,44.9,36.0,29.93,WSW,244,4.0,-999.0,72,-99.99,,,0.00,weatherlink.com 1.10,2013-01-11 13:25:00,
2013-01-11 07:40:00,44.8,36.0,29.94,SW,232,0.0,-999.0,72,-99.99,,,0.00,weatherlink.com 1.10,2013-01-11 13:40:00,
2013-01-11 07:55:00,45.0,36.0,29.95,SW,229,0.0,-999.0,72,-99.99,,,0.00,weatherlink.com 1.10,2013-01-11 13:55:00,
2013-01-11 08:10:00,45.4,37.0,29.94,SW,225,0.0,-999.0,73,-99.99,,,0.00,weatherlink.com 1.10,2013-01-11 14:10:00,
2013-01-11 08:25:00,45.6,38.0,29.95,SW,223,0.0,-999.0,74,-99.99,,,0.00,weatherlink.com 1.10,2013-01-11 14:25:00,
2013-01-11 08:40:00,46.0,39.0,29.94,SW,215,0.0,-999.0,75,-99.99,,,0.00,weatherlink.com 1.10,2013-01-11 14:40:00,
2013-01-11 08:55:00,46.2,38.0,29.95,SSW,205,1.0,-999.0,74,-99.99,,,0.00,weatherlink.com 1.10,2013-01-11 14:55:00,
2013-01-11 09:10:00,47.9,42.0,29.95,SSW,195,2.0,-999.0,79,-99.99,,,0.00,weatherlink.com 1.10,2013-01-11 15:10:00,
2013-01-11 09:25:00,48.7,42.0,29.95,SW,217,1.0,-999.0,79,-99.99,,,0.00,weatherlink.com 1.10,2013-01-11 15:25:00,
2013-01-11 09:40:00,49.2,43.0,29.93,SSW,207,1.0,-999.0,80,-99.99,,,0.00,weatherlink.com 1.10,2013-01-11 15:40:00,
2013-01-11 09:55:00,50.3,44.0,29.94,SW,226,0.0,-999.0,80,-99.99,,,0.00,weatherlink.com 1.10,2013-01-11 15:55:00,
2013-01-11 10:10:00,49.7,44.0,29.94,SW,221,0.0,-999.0,80,-99.99,,,0.00,weatherlink.com 1.10,2013-01-11 16:10:00,
2013-01-11 10:25:00,49.4,44.0,29.95,SW,217,9.0,-999.0,80,-99.99,,,0.00,weatherlink.com 1.10,2013-01-11 16:25:00,
2013-01-11 10:40:00,50.2,44.0,29.94,WSW,239,0.0,-999.0,80,-99.99,,,0.00,weatherlink.com 1.10,2013-01-11 16:40:00,
2013-01-11 10:55:00,51.4,45.0,29.94,SSW,202,0.0,-999.0,79,-99.99,,,0.00,weatherlink.com 1.10,2013-01-11 16:55:00,
2013-01-11 11:10:00,52.5,46.0,29.93,West,267,0.0,-999.0,78,-99.99,,,0.00,weatherlink.com 1.10,2013-01-11 17:10:00,
2013-01-11 11:25:00,53.2,47.0,29.93,WSW,255,1.0,-999.0,78,-99.99,,,0.00,weatherlink.com 1.10,2013-01-11 17:25:00,
2013-01-11 11:40:00,53.9,47.0,29.93,SSW,193,11.0,-999.0,78,-99.99,,,0.00,weatherlink.com 1.10,2013-01-11 17:40:00,
2013-01-11 11:55:00,54.9,48.0,29.92,South,181,4.0,-999.0,77,-99.99,,,0.00,weatherlink.com 1.10,2013-01-11 17:55:00,
2013-01-11 12:10:00,56.5,48.0,29.91,South,191,1.0,-999.0,74,-99.99,,,0.00,weatherlink.com 1.10,2013-01-11 18:10:00,
2013-01-11 12:25:00,57.1,49.0,29.91,SSW,193,6.0,-999.0,74,-99.99,,,0.00,weatherlink.com 1.10,2013-01-11 18:25:00,
2013-01-11 12:40:00,57.4,48.0,29.90,WSW,244,1.0,-999.0,72,-99.99,,,0.00,weatherlink.com 1.10,2013-01-11 18:40:00,
2013-01-11 12:55:00,58.4,49.0,29.89,SSW,208,0.0,-999.0,70,-99.99,,,0.00,weatherlink.com 1.10,2013-01-11 18:55:00,
2013-01-11 13:10:00,58.9,48.0,29.89,SW,219,9.0,-999.0,67,-99.99,,,0.00,weatherlink.com 1.10,2013-01-11 19:10:00,
2013-01-11 13:25:00,59.6,48.0,29.88,SSE,157,9.0,-999.0,66,-99.99,,,0.00,weatherlink.com 1.10,2013-01-11 19:25:00,
2013-01-11 13:40:00,59.3,49.0,29.88,SSW,208,0.0,-999.0,69,-99.99,,,0.00,weatherlink.com 1.10,2013-01-11 19:40:00,
2013-01-11 13:55:00,59.8,47.0,29.88,South,181,4.0,-999.0,64,-99.99,,,0.00,weatherlink.com 1.10,2013-01-11 19:55:00,
2013-01-11 14:10:00,59.3,48.0,29.88,SSW,200,0.0,-999.0,67,-99.99,,,0.00,weatherlink.com 1.10,2013-01-11 20:10:00,
2013-01-11 14:25:00,59.6,48.0,29.88,SW,226,0.0,-999.0,65,-99.99,,,0.00,weatherlink.com 1.10,2013-01-11 20:25:00,
2013-01-11 14:40:00,59.4,47.0,29.88,South,184,12.0,-999.0,63,-99.99,,,0.00,weatherlink.com 1.10,2013-01-11 20:40:00,
2013-01-11 14:55:00,58.9,47.0,29.87,South,186,5.0,-999.0,66,-99.99,,,0.00,weatherlink.com 1.10,2013-01-11 20:55:00,
2013-01-11 15:11:00,58.4,47.0,29.86,South,191,4.0,-999.0,66,-99.99,,,0.00,weatherlink.com 1.10,2013-01-11 21:11:00,
2013-01-11 15:26:00,57.5,47.0,29.86,South,171,8.0,-999.0,68,-99.99,,,0.00,weatherlink.com 1.10,2013-01-11 21:26:00,
2013-01-11 15:41:00,57.6,47.0,29.86,South,185,5.0,-999.0,67,-99.99,,,0.00,weatherlink.com 1.10,2013-01-11 21:41:00,
2013-01-11 15:56:00,56.9,47.0,29.85,South,179,11.0,-999.0,69,-99.99,,,0.00,weatherlink.com 1.10,2013-01-11 21:56:00,
2013-01-11 16:11:00,56.4,46.0,29.86,South,172,12.0,-999.0,69,-99.99,,,0.00,weatherlink.com 1.10,2013-01-11 22:11:00,
2013-01-11 16:26:00,55.7,47.0,29.85,SSE,158,12.0,-999.0,72,-99.99,,,0.00,weatherlink.com 1.10,2013-01-11 22:26:00,
2013-01-11 16:41:00,55.0,47.0,29.86,SSW,195,4.0,-999.0,74,-99.99,,,0.00,weatherlink.com 1.10,2013-01-11 22:41:00,
2013-01-11 16:56:00,54.9,47.0,29.86,SSW,194,4.0,-999.0,74,-99.99,,,0.00,weatherlink.com 1.10,2013-01-11 22:56:00,
2013-01-11 17:11:00,54.7,47.0,29.87,South,180,5.0,-999.0,74,-99.99,,,0.00,weatherlink.com 1.10,2013-01-11 23:11:00,
2013-01-11 17:26:00,54.0,47.0,29.88,South,190,10.0,-999.0,76,-99.99,,,0.00,weatherlink.com 1.10,2013-01-11 23:26:00,
2013-01-11 17:41:00,53.6,47.0,29.87,South,190,7.0,-999.0,77,-99.99,,,0.00,weatherlink.com 1.10,2013-01-11 23:41:00,
2013-01-11 17:56:00,53.2,47.0,29.87,SSW,199,5.0,-999.0,79,-99.99,,,0.00,weatherlink.com 1.10,2013-01-11 23:56:00,
2013-01-11 18:11:00,53.2,47.0,29.87,SSE,166,13.0,-999.0,80,-99.99,,,0.00,weatherlink.com 1.10,2013-01-12 00:11:00,
2013-01-11 18:26:00,53.5,48.0,29.86,SSE,155,7.0,-999.0,80,-99.99,,,0.00,weatherlink.com 1.10,2013-01-12 00:26:00,
2013-01-11 18:41:00,53.4,47.0,29.86,South,188,6.0,-999.0,80,-99.99,,,0.00,weatherlink.com 1.10,2013-01-12 00:41:00,
2013-01-11 18:56:00,53.6,48.0,29.86,South,175,11.0,-999.0,80,-99.99,,,0.00,weatherlink.com 1.10,2013-01-12 00:56:00,
2013-01-11 19:11:00,54.0,48.0,29.87,SSE,160,6.0,-999.0,80,-99.99,,,0.00,weatherlink.com 1.10,2013-01-12 01:11:00,
2013-01-11 19:26:00,54.0,48.0,29.87,South,182,4.0,-999.0,80,-99.99,,,0.00,weatherlink.com 1.10,2013-01-12 01:26:00,
2013-01-11 19:41:00,53.9,48.0,29.88,South,174,2.0,-999.0,80,-99.99,,,0.00,weatherlink.com 1.10,2013-01-12 01:41:00,
2013-01-11 19:56:00,53.7,48.0,29.88,South,180,6.0,-999.0,80,-99.99,,,0.00,weatherlink.com 1.10,2013-01-12 01:56:00,
2013-01-11 20:11:00,53.5,48.0,29.88,South,181,3.0,-999.0,80,-99.99,,,0.00,weatherlink.com 1.10,2013-01-12 02:11:00,
2013-01-11 20:26:00,53.9,48.0,29.88,SSW,192,3.0,-999.0,80,-99.99,,,0.00,weatherlink.com 1.10,2013-01-12 02:26:00,
2013-01-11 20:41:00,53.9,48.0,29.88,SSW,200,8.0,-999.0,80,-99.99,,,0.00,weatherlink.com 1.10,2013-01-12 02:41:00,
2013-01-11 20:56:00,54.0,48.0,29.89,SSW,198,4.0,-999.0,80,-99.99,,,0.00,weatherlink.com 1.10,2013-01-12 02:56:00,
2013-01-11 21:11:00,54.0,48.0,29.89,South,183,5.0,-999.0,80,-99.99,,,0.00,weatherlink.com 1.10,2013-01-12 03:11:00,
2013-01-11 21:26:00,54.1,48.0,29.89,SSW,202,0.0,-999.0,80,-99.99,,,0.00,weatherlink.com 1.10,2013-01-12 03:26:00,
2013-01-11 21:41:00,53.9,48.0,29.90,SSW,211,2.0,-999.0,80,-99.99,,,0.00,weatherlink.com 1.10,2013-01-12 03:41:00,
2013-01-11 21:56:00,54.0,48.0,29.90,SSW,209,5.0,-999.0,80,-99.99,,,0.00,weatherlink.com 1.10,2013-01-12 03:56:00,
2013-01-11 22:11:00,54.2,48.0,29.89,SSW,213,7.0,-999.0,80,-99.99,,,0.00,weatherlink.com 1.10,2013-01-12 04:11:00,
2013-01-11 22:26:00,54.6,49.0,29.89,SW,219,5.0,-999.0,80,-99.99,,,0.00,weatherlink.com 1.10,2013-01-12 04:26:00,
2013-01-11 22:41:00,54.8,49.0,29.89,SW,229,11.0,-999.0,80,-99.99,,,0.00,weatherlink.com 1.10,2013-01-12 04:41:00,
2013-01-11 22:56:00,54.8,49.0,29.88,SW,223,6.0,-999.0,80,-99.99,,,0.00,weatherlink.com 1.10,2013-01-12 04:56:00,
2013-01-11 23:11:00,54.8,49.0,29.89,SSW,202,7.0,-999.0,80,-99.99,,,0.00,weatherlink.com 1.10,2013-01-12 05:11:00,
2013-01-11 23:26:00,55.0,49.0,29.88,WSW,247,5.0,-999.0,80,-99.99,,,0.00,weatherlink.com 1.10,2013-01-12 05:26:00,
2013-01-11 23:41:00,55.0,49.0,29.88,SSW,192,12.0,-999.0,80,-99.99,,,0.00,weatherlink.com 1.10,2013-01-12 05:41:00,
2013-01-11 23:56:00,54.9,49.0,29.89,WSW,244,10.0,-999.0,80,-99.99,,,0.00,weatherlink.com 1.10,2013-01-12 05:56:00,